DIAMOND RED (42783 NORAD) Tracking and Keplerian Element Data

This shows tracking and keplerian element data for the satellite.

Feedback or suggestion? Click here.




ElementValue
Catalog42783
NameDIAMOND RED
Epoch Orbit36520
Epoch Day12.6039077
Epoch Year2024
RAAN49.8468
Inclination97.1196
Eccentricity0.0006131
Argument of Perigee66.7468
Mean Anonmoly293.4435
Mean Motion15.60396145
Decay Rate0.00084727
L11 42783U 17036U 24012.60390770 .00084727 00000+0 10249-2 0 9997
L22 42783 97.1196 49.8468 0006131 66.7468 293.4435 15.60396145365202



Live tracking and technical data element details for DIAMOND RED (NORAD 42783). DIAMOND RED can be tracked NOW for your location showing map with azimuth and elevation plus other details from your city location.







IsCatalogInMostPopularTable: catalog: 42783, numindb: 1046
Update: records affected: 1



GetName: 42783 DIAMOND RED

Hit Count: updated at: Tue, 17 Sep 2024 12:41:17 GMT